This is the latest recevied weather packets stored in our database for station/object SQ9RHX-13. If no packets are shown the sender has not sent any weather packets the latest 10 day(s).
| Time | Temp. | Humidity | Pressure | Rain* | Wind** | Luminosity | Snow |
|---|---|---|---|---|---|---|---|
| 1777809904 | 27.22° C | 25% | 1019 hPa | 0 mm | - | 620 W/m² | - |
| 1777809603 | 27.22° C | 25% | 1019 hPa | 0 mm | - | 630 W/m² | - |
| 1777809302 | 27.22° C | 24% | 1019.2 hPa | 0 mm | - | 635 W/m² | - |
| 1777809003 | 27.22° C | 23% | 1019 hPa | 0 mm | - | 640 W/m² | - |
| 1777808704 | 27.22° C | 23% | 1019.3 hPa | 0 mm | - | 648 W/m² | - |
| 1777808403 | 27.78° C | 22% | 1019.2 hPa | 0 mm | - | 652 W/m² | - |
| 1777808103 | 27.22° C | 25% | 1019.3 hPa | 0 mm | - | 657 W/m² | - |
| 1777807804 | 27.22° C | 23% | 1019.4 hPa | 0 mm | - | 658 W/m² | - |
| 1777807503 | 26.67° C | 22% | 1019.3 hPa | 0 mm | - | 667 W/m² | - |
| 1777807203 | 27.22° C | 22% | 1019.4 hPa | 0 mm | - | 666 W/m² | - |
| 1777806903 | 26.67° C | 23% | 1019.5 hPa | 0 mm | - | 673 W/m² | - |
| 1777806604 | 27.22° C | 23% | 1019.7 hPa | 0 mm | - | 672 W/m² | - |
| 1777806304 | 26.67° C | 24% | 1019.7 hPa | 0 mm | - | 679 W/m² | - |
| 1777806003 | 27.22° C | 23% | 1019.5 hPa | 0 mm | - | 671 W/m² | - |
| 1777805704 | 26.67° C | 24% | 1019.8 hPa | 0 mm | - | 665 W/m² | - |
| 1777805404 | 26.67° C | 23% | 1019.8 hPa | 0 mm | - | 670 W/m² | - |
| 1777805103 | 26.67° C | 24% | 1019.7 hPa | 0 mm | - | 665 W/m² | - |
| 1777804803 | 26.67° C | 25% | 1019.8 hPa | 0 mm | - | 667 W/m² | - |
| 1777804503 | 26.67° C | 23% | 1019.9 hPa | 0 mm | - | 679 W/m² | - |
| 1777804203 | 26.67° C | 23% | 1019.7 hPa | 0 mm | - | 680 W/m² | - |
| 1777803903 | 26.67° C | 24% | 1020 hPa | 0 mm | - | 670 W/m² | - |
| 1777803603 | 26.67° C | 24% | 1019.9 hPa | 0 mm | - | 672 W/m² | - |
| 1777803303 | 26.67° C | 23% | 1019.9 hPa | 0 mm | - | 633 W/m² | - |
| 1777803005 | 26.67° C | 23% | 1020.1 hPa | 0 mm | - | 633 W/m² | - |
| 1777802702 | 26.11° C | 24% | 1020.1 hPa | 0 mm | - | 626 W/m² | - |
* Rain latest hour (hover to see other rain measurements)
** Current wind speed in m/s (hover to see current wind gust speed)